EHI
16 17 17 14 11 8 7 7 8 7 6 4 1 0 0 0 0 0 1 2 1 0 0 0 0 0 0 0 0 0 0 0 0 0 0 0 0 0 0 0 0 1 3
17 19 18 16 14 12 9 8 9 10 9 6 2 1 1 0 0 0 1 1 1 0 0 0 0 0 0 0 0 0 0 0 0 0 0 0 0 0 0 0 1 2 3
18 19 19 18 16 14 12 10 11 14 15 12 7 5 3 2 0 0 0 0 1 1 1 1 1 1 0 0 0 0 0 0 0 0 0 0 0 0 0 0 1 2 2
17 19 21 19 15 12 11 11 12 16 19 18 15 10 7 4 2 0 0 0 0 1 2 2 2 2 1 0 0 0 0 0 0 0 0 0 0 0 0 0 0 1 1
15 18 22 21 16 12 11 11 12 15 19 21 19 15 10 7 5 3 1 1 0 1 2 3 3 3 2 1 0 0 0 0 0 0 0 0 0 0 0 1 1 1 1
12 16 22 23 20 17 15 13 14 15 17 19 20 18 14 11 10 8 5 2 1 1 2 3 3 4 4 2 1 1 0 0 0 0 0 0 0 1 1 2 1 1 1
12 16 20 21 19 19 19 18 19 19 17 17 19 20 18 17 15 13 8 5 2 1 1 2 3 4 5 5 3 2 1 1 1 1 0 0 1 3 3 2 1 0 0
14 17 18 17 15 16 18 20 21 21 19 17 18 20 20 20 18 14 9 5 3 2 1 1 1 3 4 5 5 4 3 2 2 1 0 0 2 3 4 2 0 0 0
13 15 16 14 12 12 14 17 18 19 18 17 17 20 22 20 18 14 8 5 3 3 2 1 1 2 3 4 5 5 4 3 3 2 1 1 1 3 2 1 0 0 0
13 14 14 13 11 10 12 14 16 18 19 18 19 21 23 21 18 15 9 5 4 4 3 3 2 2 3 3 4 5 4 3 3 3 2 2 1 1 1 0 0 0 0
13 13 12 12 12 13 14 16 18 21 22 21 20 22 23 21 18 16 12 7 5 5 5 4 4 4 4 4 4 4 5 4 3 3 4 3 1 0 0 0 0 0 0
14 12 11 12 16 18 19 19 21 22 22 22 22 21 21 21 20 19 16 11 8 8 8 6 6 6 5 4 4 4 5 6 5 5 6 4 2 0 0 0 0 0 0
15 13 12 14 19 22 22 22 21 22 23 25 24 22 21 22 21 22 21 16 12 12 12 9 9 9 7 5 3 4 5 5 4 6 7 5 3 2 1 1 1 0 0
16 15 14 16 20 23 24 25 25 25 27 28 27 25 24 23 22 22 21 17 14 14 14 12 12 12 9 6 4 4 3 2 3 5 6 5 5 5 4 3 2 1 1
16 16 16 17 20 23 26 28 29 28 27 28 28 26 25 24 22 22 20 17 15 14 12 12 13 14 12 8 6 5 4 2 2 3 3 4 6 6 5 4 4 3 3
19 20 19 17 18 21 24 28 29 27 25 25 25 25 25 25 24 24 22 18 16 13 11 11 14 15 14 10 7 7 7 6 4 2 1 2 4 5 4 3 4 5 5
22 22 19 16 15 17 20 23 25 25 23 22 22 24 25 26 26 25 23 22 20 16 13 14 16 16 14 10 6 6 8 8 7 4 2 2 3 4 4 3 3 4 5
21 20 18 16 16 17 18 20 22 23 23 22 22 24 26 28 28 27 25 24 24 20 19 19 18 16 13 9 5 4 6 7 8 7 4 3 3 4 4 4 4 4 4
18 18 17 17 18 19 19 20 23 24 24 23 22 24 27 28 30 28 25 24 24 24 24 23 21 17 13 9 5 3 5 7 7 6 6 6 5 4 4 5 6 6 4
18 18 17 17 19 21 23 24 25 25 24 22 22 24 27 28 29 28 24 22 22 24 26 26 23 17 14 11 5 3 6 8 7 6 7 7 6 4 3 4 6 6 4
22 21 20 20 21 24 26 27 27 25 23 22 22 25 27 27 26 25 24 22 22 24 26 26 21 16 14 12 6 4 6 8 9 8 6 5 4 3 1 2 4 4 3
26 25 23 22 22 24 26 26 26 25 24 24 24 26 26 25 24 23 23 23 23 25 25 22 19 15 13 10 6 3 3 5 8 8 6 4 2 1 0 1 2 2 1
28 27 24 21 21 20 21 23 24 24 25 25 25 24 23 22 22 21 22 22 22 23 22 18 15 14 12 9 6 3 2 2 4 6 5 3 1 0 0 0 1 1 0
23 22 20 19 19 18 17 18 21 23 24 24 24 23 22 21 20 19 19 19 20 19 17 13 10 9 10 8 6 4 4 3 3 3 3 2 0 0 0 0 0 0 0
13 13 14 16 17 17 16 16 17 19 22 23 24 23 22 20 19 17 16 16 15 14 10 7 6 6 6 6 5 5 5 5 4 3 3 2 1 1 1 0 0 0 0
8 8 10 13 16 17 16 15 15 16 18 21 24 23 22 19 17 16 13 11 11 10 7 5 4 4 4 3 3 3 4 5 4 2 3 3 2 2 2 1 0 0 0
Wind_Speed
11 11 11 11 9 8 7 7 7 5 4 3 3 2 1 1 1 1 2 3 2 3 3 2 2 2 2 2 2 2 3 2 2 3 3 3 3 1 1 1 1 2 2
10 11 11 10 10 9 8 7 6 6 5 4 3 3 2 1 1 1 2 2 3 3 3 3 2 2 2 2 2 2 2 1 1 2 2 2 3 3 2 1 1 1 1
15 14 13 11 11 10 10 9 7 7 6 5 3 2 2 1 1 1 1 2 3 3 3 3 3 2 2 2 2 2 2 1 0 1 3 2 1 1 2 1 1 0 1
13 13 13 13 13 12 10 9 8 7 6 6 5 5 4 3 2 2 2 1 2 3 3 3 3 2 2 2 2 2 2 2 1 1 0 2 3 2 0 2 1 0 0
14 15 14 14 13 12 10 9 8 7 6 6 7 6 4 3 2 2 2 2 2 2 3 3 3 3 2 2 2 2 2 2 2 1 0 1 1 2 2 1 1 1 1
13 12 11 11 10 10 9 8 8 7 6 6 6 6 6 5 4 3 2 2 1 1 2 3 3 3 2 2 2 2 2 1 2 1 1 1 1 1 2 2 1 1 2
12 12 11 11 10 10 10 9 9 8 7 7 7 7 7 6 6 5 4 3 2 2 3 3 3 3 3 3 2 2 1 1 1 1 1 1 1 2 2 2 1 0 1
12 13 13 12 11 11 10 10 10 8 8 7 7 6 6 5 4 5 4 4 3 3 3 3 3 3 3 3 2 2 2 1 1 1 1 1 1 1 2 2 2 1 1
12 12 12 11 11 11 10 11 10 8 8 8 7 6 6 6 5 4 4 3 3 3 3 3 3 3 3 3 3 2 2 1 1 1 1 1 1 1 1 2 3 3 1
11 11 11 11 10 10 9 9 10 9 8 8 7 7 6 6 5 5 5 4 4 3 4 4 3 3 3 3 3 2 2 2 1 1 1 0 1 0 0 1 1 2 3
10 10 10 10 10 9 8 8 9 7 7 7 6 6 6 6 5 5 5 5 4 4 4 4 4 4 3 3 3 2 2 2 2 1 1 2 1 1 1 1 1 1 2
10 10 10 9 9 9 8 8 8 8 7 7 6 6 5 5 5 5 5 5 5 4 4 4 4 4 4 3 3 3 3 3 3 2 2 2 2 1 1 1 2 2 2
8 8 8 8 9 9 9 8 9 9 7 6 6 5 5 6 6 6 5 5 5 4 4 4 4 4 4 4 4 4 3 3 3 3 3 3 2 2 2 2 2 2 1
8 8 8 8 8 8 8 8 8 8 7 7 6 6 6 6 6 6 5 5 5 5 5 5 5 5 4 4 4 4 3 3 3 3 4 4 4 4 3 2 3 2 1
7 7 8 8 7 7 7 7 7 7 7 7 7 7 6 5 5 5 5 5 5 5 5 4 4 4 4 4 4 4 4 3 3 3 3 4 4 4 4 3 3 3 2
8 7 7 8 8 8 8 7 7 6 7 7 7 6 5 5 5 5 5 5 5 5 5 5 5 4 4 5 7 6 4 4 3 3 3 3 3 4 4 5 5 5 4
7 8 8 9 9 9 9 9 8 6 6 6 6 6 6 6 6 6 5 6 6 5 5 5 5 5 5 6 7 7 4 4 4 4 3 3 3 3 2 4 4 4 6
8 7 7 7 7 7 7 7 6 7 7 6 6 5 6 6 5 5 6 5 5 5 5 6 6 5 6 6 6 7 4 4 4 4 4 4 3 3 2 2 2 3 4
6 6 7 7 7 7 7 7 7 6 6 6 6 6 6 6 5 6 6 5 5 5 6 6 6 6 5 6 6 5 3 3 4 4 4 4 4 4 3 2 3 3 4
4 5 6 6 6 6 7 8 7 7 7 7 6 6 6 6 6 6 5 4 4 5 5 5 5 6 5 5 6 6 3 3 3 3 3 4 4 4 4 3 3 4 5
3 4 6 5 5 6 7 7 7 7 7 6 5 5 5 6 6 5 4 4 4 4 4 5 4 5 5 5 6 7 4 4 4 3 3 3 5 4 4 4 4 6 4
3 4 4 4 3 5 7 6 6 6 5 5 5 5 5 5 4 4 4 4 4 4 4 3 3 3 3 4 5 6 6 4 4 4 3 4 6 5 5 4 5 5 3
3 4 4 3 2 3 5 5 4 4 5 5 5 5 4 4 4 4 4 3 3 3 3 3 3 3 2 3 5 6 6 6 4 3 5 5 6 5 4 4 4 3 2
3 3 5 4 2 1 2 3 2 3 5 5 5 4 4 3 3 3 4 4 4 3 3 3 4 3 2 3 3 3 3 3 3 2 3 4 4 3 3 3 2 2 2
2 3 3 3 1 1 1 1 2 3 4 4 4 4 4 4 3 3 3 5 5 6 6 5 4 4 4 6 7 6 4 4 3 2 0 0 0 1 1 1 2 2 2
2 2 2 2 1 1 1 1 2 3 4 3 3 3 3 3 3 3 1 1 2 4 6 6 6 5 6 6 7 7 7 6 5 4 2 2 3 3 3 3 2 2 3
Wind_Direction
176 169 164 156 150 151 153 156 157 163 153 146 148 144 151 160 159 151 146 145 139 137 128 116 107 107 108 113 103 97 89 80 95 83 56 29 34 52 58 115 127 143 161
172 171 163 160 159 161 161 162 165 165 162 163 164 158 147 151 158 146 132 149 148 148 140 132 137 131 116 101 102 106 107 111 107 112 101 46 9 6 17 54 119 144 135
174 174 168 168 165 167 170 172 176 171 168 156 135 114 83 64 75 114 157 166 158 152 145 147 147 138 135 140 143 136 128 136 85 120 135 139 183 314 347 355 58 143 171
172 173 172 172 174 177 174 172 172 169 168 158 151 152 159 173 188 173 173 168 162 158 155 150 148 146 139 139 157 145 135 133 154 309 189 159 158 151 211 341 343 337 231
173 175 177 177 177 176 174 172 167 168 169 164 165 165 173 181 161 143 150 164 170 169 164 155 147 147 143 142 136 122 122 132 143 157 149 82 78 121 144 212 302 336 296
175 173 175 170 173 174 172 168 163 172 173 170 169 171 175 172 158 162 168 184 180 177 174 163 158 157 153 154 154 145 139 144 137 130 120 138 146 168 150 172 211 258 283
169 166 165 167 169 171 173 171 170 177 180 178 180 183 182 177 179 182 182 181 181 187 194 179 173 168 172 170 156 143 146 150 143 156 175 163 177 169 155 143 170 220 292
170 168 169 170 170 169 170 171 174 179 182 184 189 186 182 181 186 188 183 186 191 194 186 179 176 174 173 169 152 148 165 146 163 204 199 182 217 174 157 159 153 128 329
171 169 166 168 170 170 174 176 176 178 184 187 185 185 185 186 186 184 183 182 186 184 175 173 173 173 169 166 155 163 187 166 178 215 223 207 242 198 175 155 154 154 191
165 164 164 170 172 172 173 175 177 182 187 189 190 190 194 193 187 181 187 186 187 184 170 171 171 172 170 168 163 174 193 185 217 206 189 226 242 238 181 161 160 153 167
161 163 165 168 167 165 166 172 177 178 185 189 189 190 191 190 183 185 191 188 184 180 177 179 174 174 178 176 173 191 190 198 229 224 193 225 214 201 210 180 173 178 159
162 163 162 160 160 163 165 167 169 181 191 187 178 182 185 179 181 187 191 183 181 181 180 177 178 184 184 183 187 204 202 201 215 223 213 233 221 210 214 196 202 210 191
152 154 158 160 164 168 170 169 171 180 185 177 174 178 182 182 186 190 187 181 178 179 176 172 182 189 191 195 202 203 208 210 215 215 216 230 209 223 233 219 214 220 209
153 155 159 166 169 172 173 174 178 179 176 175 176 184 191 191 190 186 183 180 176 176 183 186 191 193 194 197 201 201 212 222 230 226 222 223 210 214 217 223 222 213 203
156 161 165 168 167 167 171 174 177 176 174 174 180 193 193 188 184 185 185 181 182 187 187 189 198 202 201 206 202 206 212 218 232 242 236 230 217 215 216 217 216 203 202
167 166 165 166 170 172 173 172 176 179 171 176 188 191 183 182 187 192 190 188 193 193 187 194 199 208 220 217 208 201 209 205 211 233 244 241 234 238 230 221 211 199 199
169 170 174 175 178 179 176 178 181 175 171 179 185 183 181 185 191 192 188 195 200 195 196 203 203 210 221 213 209 202 197 202 210 218 230 245 249 235 245 239 235 234 226
172 176 180 181 179 177 175 173 167 168 172 178 182 183 180 185 185 185 193 203 202 200 205 212 210 210 222 212 209 206 202 208 218 220 220 228 243 250 231 237 240 244 246
184 184 184 179 171 171 170 159 163 169 175 182 184 185 184 185 188 196 202 203 200 207 208 208 208 210 226 214 206 196 198 214 232 234 228 221 224 246 220 212 229 253 266
180 173 163 155 161 173 162 159 169 174 187 192 190 184 181 184 196 205 205 203 202 211 207 208 209 207 217 212 199 185 192 213 239 248 242 223 222 238 220 203 210 239 256
149 156 147 152 169 164 154 162 174 189 196 189 183 180 183 190 198 199 200 198 200 199 203 209 214 212 213 207 199 189 192 205 222 233 240 237 230 235 230 217 218 232 241
101 126 132 140 153 148 148 158 186 198 182 174 176 183 188 194 197 189 194 191 188 194 205 207 216 220 207 207 212 205 206 206 209 226 234 237 235 240 238 231 240 242 233
87 95 110 110 113 140 148 160 192 178 166 168 180 185 187 193 187 184 185 187 187 191 201 202 215 229 225 223 219 215 215 216 216 234 240 245 237 234 236 245 243 229 208
90 91 99 104 103 120 133 161 172 164 164 172 180 177 178 187 187 184 181 185 191 196 203 207 215 221 217 217 212 213 213 219 230 246 259 251 228 222 239 254 242 220 216
93 92 102 112 129 127 126 155 145 138 159 175 179 180 179 182 185 191 198 195 201 199 198 209 210 207 223 229 210 197 204 202 205 185 198 222 205 225 246 251 247 239 233
102 90 86 100 122 139 144 183 167 152 153 165 176 181 182 186 182 178 194 298 231 215 212 212 206 220 226 219 217 219 218 204 178 159 189 215 218 219 224 231 237 233 236